Portada
METAR-TAF:

METAR-TAF

Aeroports :

Dodge County Airport

Juneau, Wisconsin, Estats Units d'Amèrica

latitud: 43-25-36N, longitud: 088-42-12W, altitud: 285 m

Observació

L'informe es va fer fa 25 minuts, a les 16:55 UTC
Vent calma
Temperatura 15°C
Humitat 59%
Pressió 1027 hPa
Visibilitat: 16.1 km
Núvols disperses a una alçada de 3600 ft

METAR: KUNU 221655Z AUTO 00000KT 10SM SCT036 15/07 A3034 RMK AO2

Hora: 12:20 (17:20 UTC)


TAF: manca

Observacions i pronòstics meteorològics de més de 4000 aeroports (METAR i TAF).

Les estacions disponibles són els punts grocs i vermells al mapa.

Posi el ratolí al punt desitjat per veure el nom de l'estació.

Feu clic per veure les observacions i els pronòstics meteorològics.

Per canviar el mapa: feu clic els botons verds amb una creu de color negre per apropar; al botó verd amb un guió per allunyar la imatge; o en les fletxes verdes per a mapes adjacents.


METAR-TAF: